Location: Newark
(25.4800°N, 85.7200°E)
Time: 01:31:53
(UTC+00:00)

ISS - Visible Passes

Search period start: 20 August 2019 00:00
Search period end: 30 August 2019 00:00
Orbit: 410 x 420 km, 51.6° (Epoch: 20 August)

Date Brightness Start Highest point End Pass type
(mag) Time Alt. Az. Time Alt. Az. Time Alt. Az.
21 Aug -0.9 22:58:57 10° SSE 23:00:21 12° SE 23:01:46 10° E visible
23 Aug -3.0 22:56:35 14° SSW 22:59:15 48° SE 23:02:28 10° NE visible
24 Aug -1.8 22:10:22 22° SE 22:10:34 22° SE 22:13:12 10° ENE visible
25 Aug -3.0 22:56:57 25° W 22:58:18 36° NW 23:01:25 10° NNE visible
26 Aug -2.6 22:10:30 41° NE 22:10:30 41° NE 22:12:49 10° NE visible
27 Aug -1.4 22:56:51 11° NW 22:57:33 12° NW 22:58:54 10° NNW visible
28 Aug -1.3 22:10:13 15° N 22:10:13 15° N 22:11:12 10° N visible
